• In United Kingdom
  • List of Countries
  • For 7 days
  • Water Temperature
  • Satellite Maps
  • Weather Map
  • Weather Widgets
  • user-avatar
    Login

    Hourly Weather Zaranj

    Today, 18 February, Sunday

    Time Temperature Precipitation Wind Pressure Humidity
    00:00 +18°C° 0 mm 3 mps 720 mmHg 26%
    01:00 +17°C° 0 mm 3 mps 720 mmHg 28%
    02:00 +17°C° 0 mm 3 mps 719 mmHg 28%
    03:00 +16°C° 0 mm 3 mps 719 mmHg 29%
    04:00 +16°C° 0 mm 3 mps 719 mmHg 30%
    05:00 +16°C° 0 mm 2 mps 719 mmHg 31%
    06:00 +15°C° 0 mm 2 mps 719 mmHg 31%
    07:00 +15°C° 0 mm 2 mps 719 mmHg 32%
    08:00 +17°C° 0 mm 2 mps 719 mmHg 29%
    09:00 +18°C° 0 mm 2 mps 719 mmHg 26%
    10:00 +20°C° 0 mm 2 mps 720 mmHg 22%
    11:00 +23°C° 0 mm 2 mps 719 mmHg 20%
    12:00 +24°C° 0 mm 1 mps 718 mmHg 18%
    13:00 +25°C° 0 mm 1 mps 718 mmHg 16%
    14:00 +26°C° 0 mm 1 mps 717 mmHg 16%
    15:00 +26°C° 0 mm 1 mps 717 mmHg 15%
    16:00 +28°C° 0 mm 2 mps 716 mmHg 14%
    17:00 +26°C° 0 mm 2 mps 716 mmHg 15%
    18:00 +25°C° 0 mm 2 mps 716 mmHg 17%
    19:00 +24°C° 0 mm 2 mps 716 mmHg 18%
    20:00 +23°C° 0 mm 2 mps 716 mmHg 19%
    21:00 +23°C° 0 mm 2 mps 716 mmHg 19%
    22:00 +21°C° 0 mm 2 mps 716 mmHg 20%
    23:00 +21°C° 0 mm 2 mps 715 mmHg 20%

    Tomorrow, 19 February, Monday

    Time Temperature Precipitation Wind Pressure Humidity
    00:00 +21°C° 0 mm 2 mps 715 mmHg 20%
    01:00 +21°C° 0 mm 2 mps 715 mmHg 20%
    02:00 +20°C° 0 mm 2 mps 715 mmHg 21%
    03:00 +20°C° 0 mm 3 mps 714 mmHg 22%
    04:00 +20°C° 0 mm 3 mps 714 mmHg 23%
    05:00 +19°C° 0 mm 3 mps 714 mmHg 24%
    06:00 +19°C° 0 mm 2 mps 714 mmHg 25%
    07:00 +18°C° 0 mm 2 mps 714 mmHg 26%
    08:00 +20°C° 0 mm 2 mps 715 mmHg 23%
    09:00 +23°C° 0 mm 2 mps 715 mmHg 20%
    10:00 +25°C° 0 mm 2 mps 715 mmHg 18%
    11:00 +27°C° 0 mm 2 mps 715 mmHg 16%
    12:00 +28°C° 0 mm 2 mps 714 mmHg 15%
    13:00 +29°C° 0 mm 2 mps 714 mmHg 14%
    14:00 +30°C° 0 mm 2 mps 714 mmHg 13%
    15:00 +30°C° 0 mm 2 mps 713 mmHg 12%
    16:00 +31°C° 0 mm 3 mps 713 mmHg 12%
    17:00 +30°C° 0 mm 3 mps 713 mmHg 13%
    18:00 +29°C° 0 mm 4 mps 713 mmHg 14%
    19:00 +28°C° 0 mm 4 mps 713 mmHg 15%
    20:00 +28°C° 0 mm 5 mps 713 mmHg 16%
    21:00 +27°C° 0 mm 6 mps 713 mmHg 17%
    22:00 +27°C° 0 mm 7 mps 713 mmHg 18%
    23:00 +27°C° 0 mm 7 mps 713 mmHg 18%

    Day after tomorrow, 20 February, Tuesday

    Time Temperature Precipitation Wind Pressure Humidity
    00:00 +26°C° 0 mm 6 mps 713 mmHg 19%
    01:00 +24°C° 0 mm 6 mps 712 mmHg 20%
    02:00 +24°C° 0 mm 6 mps 713 mmHg 21%
    03:00 +23°C° 0 mm 5 mps 713 mmHg 22%
    04:00 +22°C° 0 mm 5 mps 713 mmHg 23%
    05:00 +21°C° 0 mm 4 mps 714 mmHg 25%
    06:00 +21°C° 0 mm 4 mps 714 mmHg 27%
    07:00 +20°C° 0 mm 4 mps 715 mmHg 29%
    08:00 +21°C° 0 mm 5 mps 716 mmHg 28%
    09:00 +21°C° 0 mm 5 mps 717 mmHg 27%
    10:00 +22°C° 0 mm 6 mps 718 mmHg 26%
    11:00 +23°C° 0 mm 6 mps 718 mmHg 24%
    12:00 +25°C° 0 mm 5 mps 717 mmHg 23%
    13:00 +26°C° 0 mm 5 mps 717 mmHg 21%
    14:00 +26°C° 0 mm 5 mps 717 mmHg 20%
    15:00 +26°C° 0 mm 4 mps 717 mmHg 19%
    16:00 +26°C° 0 mm 4 mps 717 mmHg 18%
    17:00 +25°C° 0 mm 4 mps 717 mmHg 19%
    18:00 +23°C° 0 mm 4 mps 717 mmHg 21%
    19:00 +22°C° 0 mm 4 mps 718 mmHg 23%
    20:00 +21°C° 0 mm 4 mps 718 mmHg 25%
    21:00 +20°C° 0 mm 5 mps 718 mmHg 28%
    22:00 +19°C° 0 mm 5 mps 718 mmHg 30%
    23:00 +19°C° 0 mm 5 mps 719 mmHg 32%

    21 February, Wednesday

    Time Temperature Precipitation Wind Pressure Humidity
    00:00 +17°C° 0 mm 5 mps 719 mmHg 35%
    01:00 +16°C° 0 mm 5 mps 719 mmHg 37%
    02:00 +16°C° 0 mm 5 mps 719 mmHg 39%
    03:00 +15°C° 0 mm 5 mps 719 mmHg 41%
    04:00 +15°C° 0 mm 4 mps 719 mmHg 43%
    05:00 +14°C° 0 mm 4 mps 719 mmHg 44%
    06:00 +14°C° 0 mm 4 mps 719 mmHg 45%
    07:00 +14°C° 0 mm 4 mps 720 mmHg 47%
    08:00 +17°C° 0 mm 4 mps 720 mmHg 41%
    09:00 +18°C° 0 mm 4 mps 721 mmHg 36%
    10:00 +20°C° 0 mm 4 mps 721 mmHg 30%
    11:00 +21°C° 0 mm 3 mps 720 mmHg 27%
    12:00 +23°C° 0 mm 2 mps 720 mmHg 24%
    13:00 +24°C° 0 mm 2 mps 719 mmHg 21%
    14:00 +25°C° 0 mm 2 mps 719 mmHg 20%
    15:00 +25°C° 0 mm 2 mps 719 mmHg 19%
    16:00 +25°C° 0 mm 2 mps 718 mmHg 19%
    17:00 +24°C° 0 mm 2 mps 718 mmHg 20%
    18:00 +23°C° 0 mm 2 mps 718 mmHg 21%
    19:00 +21°C° 0 mm 2 mps 719 mmHg 22%
    20:00 +20°C° 0 mm 2 mps 719 mmHg 23%
    21:00 +20°C° 0 mm 2 mps 719 mmHg 24%
    22:00 +20°C° 0 mm 1 mps 719 mmHg 25%
    23:00 +20°C° 0 mm 1 mps 719 mmHg 25%

    22 February, Thursday

    Time Temperature Precipitation Wind Pressure Humidity
    00:00 +19°C° 0 mm 2 mps 718 mmHg 25%
    01:00 +18°C° 0 mm 2 mps 718 mmHg 25%
    02:00 +18°C° 0 mm 2 mps 718 mmHg 26%
    03:00 +18°C° 0 mm 2 mps 717 mmHg 27%
    04:00 +17°C° 0 mm 2 mps 717 mmHg 28%
    05:00 +17°C° 0 mm 2 mps 717 mmHg 28%
    06:00 +17°C° 0 mm 2 mps 717 mmHg 29%
    07:00 +16°C° 0 mm 2 mps 717 mmHg 29%
    08:00 +18°C° 0 mm 2 mps 718 mmHg 26%
    09:00 +20°C° 0 mm 2 mps 718 mmHg 22%
    10:00 +23°C° 0 mm 2 mps 718 mmHg 18%
    11:00 +24°C° 0 mm 1 mps 717 mmHg 17%
    12:00 +25°C° 0 mm 1 mps 717 mmHg 15%
    13:00 +26°C° 0 mm 1 mps 716 mmHg 14%
    14:00 +26°C° 0 mm 1 mps 716 mmHg 14%
    15:00 +26°C° 0 mm 1 mps 715 mmHg 13%
    16:00 +27°C° 0 mm 1 mps 715 mmHg 13%
    17:00 +25°C° 0 mm 2 mps 715 mmHg 14%
    18:00 +24°C° 0 mm 2 mps 715 mmHg 15%
    19:00 +23°C° 0 mm 2 mps 716 mmHg 16%
    20:00 +22°C° 0 mm 3 mps 716 mmHg 17%
    21:00 +21°C° 0 mm 3 mps 716 mmHg 18%
    22:00 +21°C° 0 mm 3 mps 716 mmHg 19%
    23:00 +20°C° 0 mm 4 mps 716 mmHg 23%

    23 February, Friday

    Time Temperature Precipitation Wind Pressure Humidity
    00:00 +19°C° 0 mm 4 mps 716 mmHg 28%
    01:00 +17°C° 0 mm 5 mps 716 mmHg 32%
    02:00 +17°C° 0 mm 5 mps 716 mmHg 34%
    03:00 +17°C° 0 mm 4 mps 716 mmHg 37%
    04:00 +17°C° 0 mm 4 mps 716 mmHg 39%
    05:00 +15°C° 0 mm 4 mps 716 mmHg 40%
    06:00 +15°C° 0 mm 4 mps 716 mmHg 41%
    07:00 +16°C° 0 mm 3 mps 717 mmHg 42%
    08:00 +17°C° 0 mm 3 mps 717 mmHg 37%
    09:00 +19°C° 0 mm 3 mps 717 mmHg 33%
    10:00 +21°C° 0 mm 3 mps 718 mmHg 28%
    11:00 +22°C° 0 mm 3 mps 717 mmHg 25%
    12:00 +24°C° 0 mm 2 mps 717 mmHg 22%
    13:00 +26°C° 0 mm 2 mps 716 mmHg 19%
    14:00 +26°C° 0 mm 2 mps 716 mmHg 18%
    15:00 +27°C° 0 mm 2 mps 715 mmHg 17%
    16:00 +27°C° 0 mm 2 mps 715 mmHg 16%
    17:00 +26°C° 0 mm 2 mps 715 mmHg 17%
    18:00 +25°C° 0 mm 2 mps 715 mmHg 19%
    19:00 +23°C° 0 mm 1 mps 715 mmHg 20%
    20:00 +23°C° 0 mm 2 mps 715 mmHg 22%
    21:00 +21°C° 0 mm 2 mps 715 mmHg 23%
    22:00 +21°C° 0 mm 3 mps 716 mmHg 25%
    23:00 +20°C° 0 mm 3 mps 715 mmHg 29%
    Show more